Lid_Strength_Index
-1 -1 -1 2 7 7 10 10 7 8 8 5 5 6 7 7 9 12 1 -0 -0 1 -0 -1 -2 -2 -2 -2 -2 -2 -2 -2 -2 -2 -2 -2 -2 -2 -2 -2 -2 -2 -2 -2 -2 -2 -2 -2 -2
-1 0 1 4 9 11 10 7 8 7 6 5 5 5 6 8 5 4 3 -0 -1 -0 -1 -1 -1 -2 -2 -2 -2 -2 -2 -2 -2 -2 -2 -2 -2 -2 -2 -2 -2 -2 -2 -2 -2 -2 -2 -1 -1
-0 0 4 6 8 10 9 7 7 6 5 5 6 4 6 7 4 3 1 0 -1 -0 -1 -1 -1 -2 -1 -2 -2 -2 -2 -2 -2 -2 -2 -2 -2 -2 -2 -1 -1 -2 -2 -2 -2 -2 -2 -1 -1
1 2 4 9 9 7 7 7 6 7 5 5 5 8 4 2 3 1 -0 0 -0 -1 -1 -1 -1 -2 -1 -2 -2 -2 -2 -2 -2 -2 -2 -2 -1 -1 -1 -1 -1 -1 -1 -1 -1 -2 -1 -1 -1
1 4 8 9 8 7 6 6 6 7 6 6 5 8 7 3 1 0 0 -0 0 -0 -1 -1 -1 -1 -2 -2 -2 -2 -2 -2 -2 -1 -1 -1 -1 -1 -1 -1 -1 -1 -1 -1 -1 -1 -1 -1 -1
5 4 9 11 9 6 6 5 6 6 6 6 6 7 7 2 2 1 0 -0 -1 -0 -1 -1 0 -1 -1 -2 -2 -2 -2 -2 -1 -1 -1 -1 -1 -1 -1 -1 -1 -1 -1 -1 -1 -1 -1 -1 -1
6 7 9 9 8 7 7 5 6 6 6 6 4 8 6 4 1 1 1 -0 -0 -1 -1 -1 -1 -1 -0 -1 -1 -2 -2 -2 -1 -1 -1 -1 -1 -1 -1 -1 -1 -1 -1 -1 -1 -1 -1 -1 -1
5 6 9 8 9 8 6 6 5 5 7 4 4 8 8 4 1 1 1 0 -0 -0 -1 -1 -1 -1 -1 -1 -0 -1 -1 -1 -2 -1 -1 -1 -1 -1 -1 -0 -0 -1 -1 -1 -1 -1 -1 -1 -1
3 9 10 9 8 7 5 7 5 4 6 5 4 4 3 2 1 2 2 1 1 0 -0 -1 -1 -1 -1 -1 -0 0 0 -0 -1 -1 -1 -0 -1 -1 -1 0 -0 -1 -1 -1 -1 -1 -1 -1 -0
6 9 8 6 6 6 6 6 6 6 7 7 6 4 3 2 2 3 3 3 2 1 0 -0 -1 -1 -1 -1 -1 -1 -1 -1 -1 -1 -1 -1 -1 -1 -1 1 1 0 0 -0 -1 -1 -0 1 -1
6 9 6 6 5 5 6 6 5 6 8 6 7 6 4 3 3 3 3 2 2 1 0 -0 -1 -1 -1 -1 -1 -1 -1 -1 -1 -1 -1 -1 -1 -1 -1 -1 -1 -1 1 -1 -1 -1 -1 -1 -1
9 6 6 5 5 6 6 5 7 6 6 4 4 4 4 4 4 3 3 2 2 1 1 -0 -1 -1 -1 -1 -1 -1 -1 -1 -1 -1 -1 -1 -1 -1 -1 -1 -1 -1 -1 -0 -1 -1 -1 -1 -1
8 7 5 5 5 5 5 7 7 7 5 4 4 4 4 4 4 3 2 2 1 2 1 0 -0 -0 -1 -1 -1 -1 -1 -1 1 2 2 1 -1 -0 -1 1 2 2 1 -1 -0 -1 -1 -1 -0
6 6 6 5 6 5 7 7 7 7 5 5 5 5 4 5 5 4 3 2 2 1 1 0 -0 -1 -1 -0 -0 -0 1 2 3 4 4 4 3 3 3 4 4 5 3 2 1 -1 2 3 3
7 8 7 6 6 7 6 9 9 6 5 6 6 6 7 7 7 7 6 4 4 3 3 1 0 -0 -0 -0 2 4 3 3 4 6 7 6 5 5 4 4 4 4 4 3 3 2 4 5 5
9 8 12 8 7 6 7 12 8 7 6 7 6 7 8 8 9 9 9 7 6 5 4 3 3 -0 1 3 4 6 6 8 8 8 7 7 7 6 6 5 6 5 5 5 5 6 6 6 6
12 15 12 10 6 8 8 11 8 7 7 8 8 8 8 10 10 10 9 7 7 5 4 2 1 1 4 5 7 8 8 9 9 8 8 7 7 6 6 6 6 6 6 7 7 6 7 7 8
16 15 12 12 9 8 10 10 8 8 7 8 9 8 9 9 10 10 10 8 6 5 4 3 2 4 5 7 9 9 9 9 8 8 7 7 7 7 7 7 7 7 7 8 8 7 8 8 9
12 13 15 10 9 9 10 10 10 9 7 9 8 10 10 10 10 9 9 7 7 7 6 4 5 7 8 9 10 10 11 10 9 9 8 8 8 8 7 8 8 8 9 9 9 9 9 10 10
12 15 16 14 10 11 10 11 9 9 9 8 8 7 8 10 9 9 9 8 8 10 10 8 7 7 8 9 10 10 10 9 9 9 8 8 9 9 9 9 10 10 10 11 10 10 10 10 10
13 15 16 16 14 11 10 13 12 11 10 9 9 8 8 9 10 11 10 9 9 10 10 10 10 10 10 11 10 10 10 9 9 9 9 9 9 10 10 10 10 11 11 11 11 10 11 11 10
15 11 12 15 16 18 11 18 13 12 13 12 10 10 10 10 10 11 11 11 11 11 11 11 11 11 10 9 10 8 9 11 10 10 10 10 10 11 11 11 11 11 11 11 11 10 10 10 11
12 10 12 12 15 17 16 17 13 11 13 12 11 10 11 12 12 12 12 12 12 11 11 11 11 11 10 9 9 9 10 10 10 10 10 11 10 11 11 11 11 11 11 10 10 10 10 10 11
9 11 12 12 14 19 16 17 16 13 11 10 10 10 11 12 12 12 12 12 13 12 12 11 11 11 10 9 9 9 10 11 10 11 11 11 11 11 11 11 11 10 11 11 11 11 11 11 11
10 14 19 20 20 20 14 17 15 10 9 9 10 11 11 12 12 13 13 13 13 13 13 12 12 12 11 11 11 11 11 11 11 11 11 11 12 11 12 11 11 11 11 12 11 11 11 11 12
12 13 17 22 21 19 15 19 15 11 10 8 9 10 11 12 12 13 13 13 13 13 13 12 12 13 12 12 12 12 12 12 12 12 11 11 11 11 11 11 11 12 12 12 12 12 12 11 11
12 15 11 16 16 18 16 14 11 12 11 10 11 12 13 13 13 13 12 13 13 13 13 13 13 13 13 13 13 13 12 12 12 12 11 11 10 11 12 11 11 11 11 12 12 12 13 12 12
10 9 15 15 20 22 17 16 14 14 11 10 11 12 12 12 13 13 13 12 13 13 13 13 13 13 13 13 13 13 13 12 12 12 12 12 12 12 12 11 11 12 12 12 12 12 12 12 12
12 13 12 12 15 18 19 16 11 10 10 10 10 10 10 12 13 13 13 13 13 13 13 13 14 14 13 13 13 13 13 13 12 12 12 12 12 12 12 12 12 13 13 12 12 12 12 12 12
10 11 12 16 18 15 16 15 13 12 10 9 10 10 10 11 12 12 13 13 13 13 13 13 13 13 13 13 13 13 13 13 13 13 13 13 13 13 13 13 13 14 13 13 12 12 12 12 12